CST,Max TemperatureF,Mean TemperatureF,Min TemperatureF,Max Dew PointF,MeanDew PointF,Min DewpointF,Max Humidity, Mean Humidity, Min Humidity, Max Sea Level PressureIn, Mean Sea Level PressureIn, Min Sea Level PressureIn, Max VisibilityMiles, Mean VisibilityMiles, Min VisibilityMiles, Max Wind SpeedMPH, Mean Wind SpeedMPH, Max Gust SpeedMPH,PrecipitationIn, CloudCover, Events, WindDirDegrees
2013-2-1,71,52,32,36,32,27,87,50,25,30.38,30.28,30.18,10,10,10,17,3,23,0.00,0,,152
2013-2-2,73,54,35,48,40,34,93,60,35,30.36,30.25,30.20,10,10,9,12,1,,0.00,0,,14
2013-2-3,71,53,35,45,37,27,87,53,23,30.38,30.24,30.03,10,10,10,13,3,20,0.00,2,,145
2013-2-4,78,64,50,55,50,39,82,62,29,30.03,29.92,29.82,10,10,10,14,5,17,0.00,3,,212
2013-2-5,78,58,37,50,41,34,93,55,24,30.05,29.98,29.92,10,10,10,10,3,,0.00,0,Thunderstorm,253
2013-2-6,77,65,53,61,54,48,94,77,50,30.02,29.95,29.86,10,10,1,13,3,22,0.50,2,Rain-Thunderstorm,122
2013-2-7,82,70,55,59,50,34,94,60,20,30.17,29.98,29.91,10,10,9,16,6,23,0.00,3,,303
2013-2-8,69,56,42,43,32,23,76,44,18,30.29,30.19,30.12,10,10,5,16,6,21,0.00,0,,61
2013-2-9,69,58,48,64,52,32,94,80,47,30.13,29.96,29.80,10,9,2,13,6,20,0.00,7,,146
2013-2-10,69,58,48,64,39,21,93,52,18,30.06,29.93,29.75,10,10,5,20,7,37,0.03,1,Rain-Thunderstorm,296
2013-2-11,57,52,48,48,43,36,88,72,44,30.13,30.06,30.02,10,10,2,14,3,17,0.11,6,Rain-Thunderstorm,73
2013-2-12,71,56,42,52,41,19,100,68,16,30.12,29.96,29.86,10,8,1,24,6,32,0.00,4,,321
2013-2-13,62,47,32,34,30,23,93,62,23,30.22,30.14,30.06,10,10,10,14,5,23,0.00,0,,321
2013-2-14,71,50,30,37,32,28,93,58,20,30.15,30.08,30.00,10,10,10,14,2,18,0.00,0,,195
2013-2-15,57,45,32,37,33,23,93,62,40,30.44,30.28,30.09,10,10,10,14,4,23,0.00,2,,46
2013-2-16,64,45,26,32,27,23,86,57,22,30.49,30.35,30.23,10,10,10,10,1,16,0.00,0,,258
2013-2-17,71,52,32,48,34,27,87,55,23,30.22,30.11,29.97,10,10,10,18,5,26,0.00,1,,187
2013-2-18,80,66,53,55,41,19,77,46,11,30.16,29.96,29.88,10,10,10,22,11,29,0.00,3,,252
2013-2-19,66,50,35,32,29,23,81,43,21,30.32,30.20,30.11,10,10,10,15,5,22,0.00,2,,110
2013-2-20,59,55,51,59,44,28,100,74,36,30.10,29.91,29.66,10,7,1,18,11,25,0.01,8,Rain,124
2013-2-21,73,58,41,64,38,18,100,50,12,29.90,29.77,29.60,10,10,4,25,9,33,0.00,3,Rain,292
2013-2-22,60,48,37,37,31,27,81,57,34,30.13,30.04,29.87,10,10,10,9,4,,0.00,0,,23
2013-2-23,69,50,32,34,28,19,87,53,15,30.10,30.01,29.91,10,10,10,14,2,20,0.00,0,,331
2013-2-24,75,56,37,57,43,32,87,62,34,29.95,29.80,29.61,10,10,7,18,6,24,0.00,2,,147
2013-2-25,64,54,42,57,33,21,77,51,26,29.89,29.74,29.59,10,10,9,34,16,45,0.02,5,,290
2013-2-26,64,50,35,32,28,23,75,47,21,30.00,29.91,29.85,10,10,10,16,9,24,0.00,0,,298
2013-2-27,60,48,37,32,26,18,75,46,22,30.29,30.13,29.88,10,10,10,18,7,25,0.00,0,,339
2013-2-28,60,46,32,30,24,19,81,49,20,30.37,30.30,30.23,10,10,9,16,4,18,0.00,0,,358